AirNav   Air Wisconsin Up To $57,000 Bonus
 
 649 users online  

01MD Annapolis Seaplane Base
Annapolis, Maryland, USA

GOING TO ANNAPOLIS?


FAA INFORMATION EFFECTIVE 30 JANUARY 2020

Location

FAA Identifier: 01MD
Lat/Long: 38-59-57.0000N 076-27-21.4800W
38-59.950000N 076-27.358000W
38.9991667,-76.4559667
(estimated)
Elevation: 0 ft. / 0 m
Variation: 11W (2000)
From city: 2 miles SW of ANNAPOLIS, MD
Time zone: UTC -5 (UTC -4 during Daylight Saving Time)
Zip code: 21401

Seaplane Base Operations

Seaplane Base use: Private use. Permission required prior to landing
Activation date: 12/2001
Control tower: no
ARTCC: WASHINGTON CENTER
FSS: LEESBURG FLIGHT SERVICE STATION
Attendance: UNATNDD
Wind indicator: yes
Segmented circle: no

Seaplane Base Communications

WX AWOS-3 at W29 (6 nm E): 120.575 (410-643-8795)
WX ASOS at BWI (15 nm NW): PHONE 410-691-1278
WX AWOS-3 at FME (15 nm W): 123.925
WX AWOS-3PT at MTN (20 nm N): 124.925 (410-682-8848)

Nearby radio navigation aids

VOR radial/distance  VOR name  Freq  Var
BALr148/14.1BALTIMORE VORTAC115.1011W
OTTr047/22.2NOTTINGHAM VORTAC113.7010W
ADWr069/22.4ANDREWS VORTAC113.1010W
DCAr082/28.4WASHINGTON VOR/DME111.0009W
EMIr149/38.4WESTMINSTER VORTAC117.9008W

 
NDB name  Hdg/Dist  Freq  Var  ID
ELLICOTT150/22.937111WFND ..-. -. -..
OXONN073/30.133211WDCA -.. -.-. .-
GEORGETOWN091/31.532309WGTN --. - -.
DAVEE065/36.722309WDAA -.. .- .-

Seaplane Base Services

Runway Information

Runway 16W/34W

Dimensions: 3500 x 100 ft. / 1067 x 30 m
Surface: water
RUNWAY 16W  RUNWAY 34W
Traffic pattern: leftleft
Runway heading: 171 magnetic, 160 true351 magnetic, 340 true

Seaplane Base Ownership and Management from official FAA records

Ownership: Privately-owned
Owner: MICHAEL & JULIE REISINGER
422 FOREST BEACH RD
ANNAPOLIS, MD 21401
Phone (410) 320-1025
410-320-0777 CELL
Manager: JULIE REISINGER
422 FOREST BEACH RD
ANNAPOLIS, MD 21401
Phone (410) 320-1025
410-320-0777 CELL

Additional Remarks

FOR CD CTC POTOMAC APCH AT 866-429-5882.

Instrument Procedures

There are no published instrument procedures at 01MD.

Some nearby airports with instrument procedures:

W29 - Bay Bridge Airport (6 nm E)
KANP - Lee Airport (6 nm SW)
KBWI - Baltimore/Washington International Thurgood Marshall Airport (15 nm NW)
KFME - Tipton Airport (15 nm W)
W00 - Freeway Airport (15 nm W)
KMTN - Martin State Airport (20 nm N)
 
Loc | Ops | Rwys | IFR | FBO | Links
Com | Nav | Svcs | Stats | Notes
Area around 01MD (Annapolis Seaplane Base)
 
Road maps at: MapQuest Bing Google
 
Aerial photo
WARNING: Photo may not be current or correct
Aerial photo of 01MD (Annapolis Seaplane Base)
Photo by James B. Sullivan
Photo taken 02-Oct-2010
looking north northeast.

Do you have a better or more recent aerial photo of Annapolis Seaplane Base that you would like to share? If so, please send us your photo.

 
Sectional chart

 
Airport distance calculator
Flying to Annapolis Seaplane Base? Find the distance to fly.

From to 01MD

Sunrise and sunset
Times for 20-Feb-2020
 Local
(UTC-5)
 Zulu
(UTC)
Morning civil twilight06:2511:25
Sunrise06:5211:52
Sunset17:4722:47
Evening civil twilight18:1423:14

Current date and time
Zulu (UTC)  20-Feb-2020 05:11:25
Local (UTC-5)  20-Feb-2020 00:11:25
 
METAR
KNAK 
2nm SW 
200454Z AUTO 32005KT 10SM CLR 05/M06 A3042 RMK AO2 SLP303 T00501056 401110044
KW29 
6nm E 
200445Z AUTO 32007KT 10SM CLR 05/M04 A3043 RMK AO2
KBWI 
15nm NW 
200454Z 28004KT 10SM FEW250 02/M08 A3042 RMK AO2 SLP303 T00221083 401220000
KFME 
15nm W 
200448Z AUTO 00000KT 10SM CLR M01/M05 A3045 RMK AO1
KDMH 
19nm NW 
200454Z AUTO 06/M09 A3043 RMK AO1 SLP304 T00561089 401280056
KMTN 
19nm N 
200447Z AUTO 28006KT 10SM CLR 02/M07 A3044 RMK AO2
TAF
KBWI 
15nm NW 
192101Z 1921/2024 28009G16KT P6SM SCT200 FM200500 VRB03KT P6SM FEW200 FM201500 36004KT P6SM BKN150 FM201800 33004KT P6SM OVC080 FM202200 VRB03KT P6SM BKN090
KMTN 
19nm N 
191740Z 1918/2018 29010KT P6SM SCT200 FM192100 32009KT P6SM FEW200 FM201000 35004KT P6SM BKN200
NOTAMs
Click for the latest NOTAMs
NOTAMs are issued by the DoD/FAA and will open in a separate window not controlled by AirNav.

 

 
 

Would you like to see your business listed on this page?

 If your business provides an interesting product or service to pilots, flight crews, aircraft, or users of the Annapolis Seaplane Base, you should consider listing it here.  To start the listing process, click on the button below
 
Add a business
 

Other Pages about Annapolis Seaplane Base

Update a link
 
Copyright © AirNav, LLC. All rights reserved. Privacy Policy  Contact